Ana Sayfa
METAR-TAF:

METAR-TAF

Havaalanları :

Wings Field

Philadelphia / Blue Bell, Pensilvanya, Amerika Birleşik Devletleri

Enlem: 40-08-15N, Boylam: 075-15-54W, yükseklik: 92 m

Güncel hava durumu gözlemi

Rapor saat 23:35 UTC de 25 dakika önce yapıldı.
Rüzgar batı/güneybatıdan 3 kt
Sıcaklık 5°C
Nem 60%
Basınç 1007 hPa
Görüş mesafesi: 16.1 km
6000 ft yükseklikte çok bulutlu

METAR: KLOM 172335Z AUTO 25003KT 10SM OVC060 05/M02 A2974 RMK AO2 T00511022

Saat: 19:00 (00:00 UTC)


TAF: eksik

4.000'den fazla havaalanı için hava durumu gözlemleri ve tahminleri (METAR ve TAF raporları).

Kullanılabilir istasyonlar harita üzerinde sarı ve kırmızı noktalarla gösterilir.

İstasyonun adını görmek için fareyi noktanın üzerinde gezdirin.

Sonrasında hava gözlem ve tahminlerini görmek için tıklayın.

Haritayı değiştirmek için: yaklaştırmak için siyah artı işaretli yeşil düğmeye ve uzaklaştırmak için de eksi işaretli düğmeye hızla tıklayın; bitişik haritalar için yeşil okları kullanın.


METAR-TAF: